Home   Weather   Billings   Past weeks

Flag for USA Past Weather in Billings, Montana, USA — Yesterday and Last 2 Weeks

Now
86 °F

Passing clouds.


Feels Like: 83 °F
Forecast: 63 / 92 °F
Wind: 9 mph from South

Location: Billings Logan International Airport

Current Time: Aug 31, 2016 at 9:51:55 PM

Latest Report: Aug 31, 2016 at 8:53 PM


Visibility: 10 mi

Pressure: 29.79 "Hg (26.78 "Hg at 946m altitude)

Humidity: 14%

Dew Point: 31 °F

Location of BillingsLocation

Past Weather in Billings — Graph

°F

Billings Temperature Yesterday

Maximum temperature yesterday: 89 °F (at 3:53 PM)
Minimum temperature yesterday: 60 °F (at 5:53 AM)
Average temperature yesterday: 75 °F

High & Low Weather Summary for the Past Weeks

 TemperatureHumidityPressure
High97 °F (Aug 31, 4:53 PM)97% (Aug 18, 10:53 AM)30.30 "Hg (Aug 18, 10:53 AM)
Low47 °F (Aug 25, 6:53 AM)9% (Aug 31, 4:53 PM)29.55 "Hg (Aug 22, 5:53 PM)
Average68 °F43%29.98 "Hg
* Reported Aug 16 7:53 PM — Aug 31 7:53 PM, Billings, Weather by CustomWeather, © 2016

Note: Actual official high and low records may vary slightly from our data, if they occured in-between our weather recording intervals... More about our weather records

Advertising

Billings Weather History for the Previous 24 Hours

Scroll right to see more
 ConditionsComfort  
Time TempWeatherWind HumidityBarometerVisibility
7:53 PM
Wed, Aug 31
91 °FScattered clouds.10 mph13%29.78 "Hg10 mi
6:53 PM93 °FPassing clouds.7 mph13%29.78 "Hg10 mi
5:53 PM95 °FPassing clouds.14 mph13%29.78 "Hg10 mi
4:53 PM97 °FPassing clouds.15 mph9%29.78 "Hg10 mi
3:53 PM96 °FScattered clouds.5 mph12%29.80 "Hg10 mi
2:53 PM94 °FScattered clouds.5 mph17%29.83 "Hg10 mi
1:53 PM91 °FScattered clouds.5 mph20%29.86 "Hg10 mi
12:53 PM89 °FScattered clouds.5 mph22%29.88 "Hg10 mi
11:53 AM84 °FScattered clouds.No wind26%29.90 "Hg10 mi
10:53 AM78 °FScattered clouds.6 mph37%29.92 "Hg10 mi
9:53 AM73 °FScattered clouds.12 mph41%29.93 "Hg10 mi
8:53 AM70 °FScattered clouds.6 mph41%29.93 "Hg10 mi
7:53 AM69 °FScattered clouds.No wind42%29.94 "Hg10 mi
6:53 AM63 °FPassing clouds.7 mph52%29.94 "Hg10 mi
5:53 AM64 °FPassing clouds.5 mph50%29.93 "Hg10 mi
4:53 AM66 °FClear.5 mph45%29.91 "Hg10 mi
3:53 AM67 °FClear.No wind45%29.92 "Hg10 mi
2:53 AM70 °FClear.5 mph41%29.90 "Hg10 mi
1:53 AM68 °FClear.No wind44%29.92 "Hg10 mi
12:53 AM73 °FClear.No wind34%29.94 "Hg10 mi
11:53 PM
Tue, Aug 30
73 °FClear.7 mph34%29.93 "Hg10 mi
10:53 PM76 °FClear.6 mph31%29.94 "Hg10 mi
9:53 PM77 °FPassing clouds.7 mph29%29.95 "Hg10 mi
Weather by CustomWeather, © 2016

See weather overviewHow to use our weather pages